Tracking 32407 objects as of 5-Dec-2025
HD Live streaming from Space Station
objects crossing your sky now

BLACKJACK ACES-2

Track BLACKJACK ACES-2 now!
10-day predictions


NORAD ID: 56955
Int'l Code: 2023-084Z
Perigee: 505.2 km
Apogee: 514.8 km
Inclination: 97.6 °
Period: 94.7 minutes
Semi major axis: 6880 km
RCS: Unknown
Launch date: June 12, 2023
Source: United States (US)
Launch site: AIR FORCE WESTERN TEST RANGE (AFWTR)
Your satellite tracking list
Your tracking list is empty




NASA's NSSDC Master Catalog

Two Line Element Set (TLE):
1 56955U 23084Z   25339.27214142  .00016336  00000-0  73848-3 0  9994
2 56955  97.5963 108.0428 0006961 296.3382  63.7138 15.20998687137722
Source of the keplerian elements: AFSPC